FW3814 Weather Reports


time (UTC)temp
F
wind
direction
speed
knots
gust
knots
rain 1hr
in
rain 24hr
in
rain mn
in
humidity
%
barometer
mb
20260901235505 71 0 0.0 0.0 0.00 0.84 0.00 74 1017.9
20260901235005 71 0 0.0 0.0 0.00 0.84 0.00 74 1018.0
20260901234505 71 360 0.0 2.6 0.00 0.84 0.00 74 1018.0
20260901234005 71 360 0.9 2.6 0.00 0.84 0.00 74 1017.9
20260901233505 71 360 0.9 2.6 0.00 0.84 0.00 74 1018.0
20260901233005 71 360 0.0 1.7 0.00 0.84 0.00 74 1017.9
20260901232505 71 0 0.0 0.0 0.00 0.84 0.00 73 1017.7
20260901232005 72 0 0.0 0.0 0.00 0.84 0.00 73 1017.9
20260901231505 72 0 0.0 0.0 0.00 0.84 0.00 73 1018.1
20260901231003 72 0 0.0 0.0 0.00 0.84 0.00 73 1017.9
20260901230503 72 0 0.0 0.0 0.00 0.84 0.00 73 1017.9
20260901230024 72 15 0.9 1.7 0.00 0.84 0.00 73 1018.0
20260901225503 72 15 0.9 1.7 0.00 0.84 0.00 72 1018.1
20260901225003 72 0 0.0 0.0 0.00 0.84 0.00 72 1018.1
20260901224503 72 0 0.0 0.0 0.00 0.84 0.00 72 1017.9
20260901224003 72 0 0.0 0.0 0.00 0.84 0.00 72 1017.9
20260901223503 72 0 0.0 0.0 0.00 0.84 0.00 70 1018.1
20260901223003 72 32 0.0 1.7 0.00 0.84 0.00 70 1017.9
20260901222503 72 14 1.7 3.5 0.00 0.84 0.00 70 1018.1
20260901222003 72 9 2.6 3.5 0.00 0.84 0.00 70 1018.0
20260901221503 73 356 2.6 3.5 0.00 0.84 0.00 70 1018.1
20260901221003 73 355 2.6 3.5 0.00 0.84 0.00 70 1018.0
20260901220503 73 2 2.6 3.5 0.00 0.84 0.00 69 1017.9
20260901220024 73 8 2.6 3.5 0.00 0.84 0.00 69 1018.0
20260901215503 73 12 1.7 3.5 0.00 0.84 0.84 69 1017.8
20260901215003 73 4 0.9 3.5 0.00 0.84 0.84 69 1017.9
20260901214503 73 347 0.0 1.7 0.00 0.84 0.84 69 1018.0
20260901214003 73 360 0.0 1.7 0.00 0.84 0.84 68 1017.8
20260901213524 73 0 0.0 0.0 0.00 0.84 0.84 68 1018.0
20260901213003 73 0 0.0 0.0 0.00 0.84 0.84 68 1018.0
20260901212503 73 0 0.0 0.0 0.00 0.84 0.84 68 1018.0
20260901212003 73 0 0.0 0.0 0.00 0.84 0.84 67 1018.0
20260901211503 73 0 0.0 0.0 0.00 0.84 0.84 67 1018.0
20260901211003 74 0 0.0 0.0 0.00 0.84 0.84 66 1017.9
20260901210503 74 0 0.0 0.0 0.00 0.84 0.84 66 1017.8
20260901210003 74 0 0.0 0.0 0.00 0.84 0.84 65 1017.8
20260901205503 74 0 0.0 0.0 0.00 0.84 0.84 65 1018.0
20260901205003 74 44 0.0 0.9 0.00 0.84 0.84 64 1017.9
20260901204503 74 30 0.0 1.7 0.00 0.84 0.84 64 1018.0
20260901204003 74 22 0.0 1.7 0.00 0.84 0.84 63 1017.9
20260901203524 75 22 0.0 1.7 0.00 0.84 0.84 63 1017.8
20260901203003 75 0 0.0 0.0 0.00 0.84 0.84 63 1017.8
20260901202503 75 0 0.0 0.0 0.00 0.84 0.84 63 1017.8
20260901202003 75 0 0.0 0.0 0.00 0.84 0.84 63 1017.8
20260901201503 75 0 0.0 0.0 0.00 0.84 0.84 63 1017.8
20260901201003 76 0 0.0 0.0 0.00 0.84 0.84 62 1017.8
20260901200503 76 0 0.0 0.0 0.00 0.84 0.84 62 1017.7
20260901200003 76 0 0.0 0.0 0.00 0.84 0.84 62 1017.7
20260901195503 76 0 0.0 0.0 0.00 0.84 0.84 62 1017.7
20260901195024 76 0 0.0 0.0 0.00 0.84 0.84 62 1017.8
20260901194503 76 0 0.0 0.0 0.00 0.84 0.84 62 1017.6
20260901194003 76 22 0.0 1.7 0.00 0.84 0.84 62 1017.4
20260901193503 76 22 0.0 2.6 0.00 0.84 0.84 62 1017.5
20260901193003 76 22 0.0 2.6 0.00 0.84 0.84 62 1017.7
20260901192503 76 0 0.0 0.0 0.00 0.84 0.84 62 1017.5
20260901192003 76 0 0.0 0.0 0.00 0.84 0.84 62 1017.5
20260901191503 77 0 0.0 0.0 0.00 0.84 0.84 61 1017.4
20260901191024 77 0 0.0 0.0 0.00 0.84 0.84 61 1017.3
20260901190503 77 0 0.0 0.0 0.00 0.84 0.84 61 1017.4
20260901190003 77 0 0.0 0.0 0.00 0.84 0.84 61 1017.2
20260901185524 77 0 0.0 0.0 0.00 0.84 0.84 60 1017.1
20260901185003 77 0 0.0 0.0 0.00 0.84 0.84 60 1017.1
20260901184503 77 0 0.0 0.0 0.00 0.84 0.84 59 1017.0
20260901184003 77 0 0.0 0.0 0.00 0.84 0.84 59 1017.0
20260901183524 77 0 0.0 0.0 0.00 0.84 0.84 59 1016.9
20260901183003 78 0 0.0 0.0 0.00 0.84 0.84 58 1016.9
20260901182503 78 0 0.0 0.0 0.00 0.84 0.84 59 1017.0
20260901182003 78 0 0.0 0.0 0.00 0.84 0.84 59 1016.9
20260901181503 78 0 0.0 0.0 0.00 0.84 0.84 58 1017.1
20260901181003 78 0 0.0 0.0 0.00 0.84 0.84 58 1016.8
20260901180503 79 0 0.0 0.0 0.00 0.84 0.84 57 1016.9
20260901180024 79 0 0.0 0.0 0.00 0.84 0.84 57 1016.8
20260901175503 79 0 0.0 0.0 0.00 0.84 0.84 56 1016.8
20260901175003 79 0 0.0 0.0 0.00 0.84 0.84 56 1016.8
20260901174503 79 0 0.0 0.0 0.00 0.84 0.84 56 1016.6
20260901174003 80 0 0.0 0.0 0.00 0.84 0.84 56 1016.7
20260901173503 80 0 0.0 0.0 0.00 0.84 0.84 56 1016.6
20260901173003 80 0 0.0 0.0 0.00 0.84 0.84 56 1016.6
20260901172503 80 0 0.0 0.0 0.00 0.84 0.84 56 1016.7
20260901172003 80 0 0.0 0.0 0.00 0.84 0.84 55 1016.4
20260901171503 81 0 0.0 0.0 0.00 0.84 0.84 55 1016.5
20260901171024 81 0 0.0 0.0 0.00 0.84 0.84 54 1016.4
20260901170503 81 0 0.0 0.0 0.00 0.84 0.84 53 1016.7
20260901170003 82 0 0.0 0.0 0.00 0.84 0.84 50 1016.5
20260901165503 82 0 0.0 0.0 0.00 0.84 0.84 49 1016.8
20260901165004 82 0 0.0 0.0 0.00 0.84 0.84 48 1016.6
20260901164503 83 0 0.0 0.0 0.00 0.84 0.84 46 1016.6
20260901164024 83 0 0.0 0.0 0.00 0.84 0.84 45 1016.6
20260901163524 83 135 0.9 2.6 0.00 0.84 0.84 45 1016.7
20260901163003 84 135 0.9 2.6 0.00 0.84 0.84 45 1016.8
20260901162503 84 205 0.9 2.6 0.00 0.84 0.84 45 1016.4
20260901162024 84 179 0.9 5.2 0.00 0.84 0.84 45 1016.7
20260901161503 84 202 2.6 5.2 0.00 0.84 0.84 45 1016.8
20260901161003 84 210 1.7 4.3 0.00 0.84 0.84 45 1016.8
20260901160503 85 0 0.0 0.0 0.00 0.84 0.84 44 1016.7
20260901160024 85 0 0.0 0.0 0.00 0.84 0.84 44 1016.8
20260901155503 85 202 0.9 3.5 0.00 0.84 0.84 44 1016.7
20260901155003 85 195 0.9 3.5 0.00 0.84 0.84 44 1016.8
20260901154503 85 182 0.9 3.5 0.00 0.84 0.84 44 1016.8
20260901154024 85 181 2.6 7.0 0.00 0.84 0.84 44 1016.8
20260901153503 85 199 3.5 7.0 0.00 0.84 0.84 44 1016.7
20260901153003 85 207 1.7 5.2 0.00 0.84 0.84 45 1016.7
20260901152503 85 184 1.7 5.2 0.00 0.84 0.84 45 1016.8
20260901152024 85 164 0.9 2.6 0.00 0.84 0.84 45 1016.9
20260901151503 85 178 1.7 6.1 0.00 0.84 0.84 46 1016.6
20260901151003 85 229 4.3 7.0 0.00 0.84 0.84 45 1016.7
20260901150503 85 230 5.2 7.0 0.00 0.84 0.84 45 1016.9
20260901150003 85 189 3.5 7.0 0.00 0.84 0.84 45 1016.8
20260901145503 85 115 4.3 7.0 0.00 0.84 0.84 45 1016.8
20260901145003 85 111 4.3 7.0 0.00 0.84 0.84 45 1016.9
20260901144503 85 134 1.7 7.0 0.00 0.84 0.84 45 1017.0
20260901144024 85 138 0.9 6.1 0.00 0.84 0.84 45 1016.9
20260901143524 85 198 1.7 6.1 0.00 0.84 0.84 46 1016.9
20260901143003 85 198 1.7 4.3 0.00 0.84 0.84 46 1017.0
20260901142503 85 146 3.5 7.0 0.00 0.84 0.84 46 1017.1
20260901142003 85 167 4.3 7.0 0.00 0.84 0.84 46 1017.1
20260901141524 85 199 2.6 7.0 0.00 0.84 0.84 47 1016.9
20260901141003 85 165 0.9 3.5 0.00 0.84 0.84 48 1017.0
20260901140503 84 191 0.9 3.5 0.00 0.84 0.84 48 1017.1
20260901140003 84 137 3.5 7.0 0.00 0.84 0.84 48 1017.1
20260901135503 84 147 4.3 7.0 0.00 0.84 0.84 48 1017.2
20260901135003 84 165 2.6 7.0 0.00 0.84 0.84 48 1017.1
20260901134503 84 216 1.7 6.1 0.00 0.84 0.84 49 1017.1
20260901134003 84 242 1.7 6.1 0.00 0.84 0.84 51 1017.2
20260901133524 84 187 2.6 6.1 0.00 0.84 0.84 50 1017.3
20260901133003 83 144 1.7 4.3 0.00 0.84 0.84 50 1017.3
20260901132503 83 59 0.9 2.6 0.00 0.84 0.84 50 1017.4
20260901132003 83 115 1.7 4.3 0.00 0.84 0.84 50 1017.4
20260901131503 83 115 2.6 5.2 0.00 0.84 0.84 50 1017.3
20260901131003 83 176 4.3 6.1 0.00 0.84 0.84 50 1017.6
20260901130503 83 187 5.2 7.0 0.00 0.84 0.84 50 1017.5
20260901130003 83 171 3.5 7.0 0.00 0.84 0.84 50 1017.5
20260901125503 83 223 2.6 7.0 0.00 0.84 0.84 51 1017.6
20260901125024 83 208 4.3 7.0 0.00 0.84 0.84 51 1017.7
20260901124503 83 133 3.5 6.1 0.00 0.84 0.84 51 1017.8
20260901124003 83 167 3.5 6.1 0.00 0.84 0.84 51 1017.8
20260901123503 83 176 1.7 6.1 0.00 0.84 0.84 52 1017.9
20260901123003 83 137 3.5 6.1 0.00 0.84 0.84 52 1017.9
20260901122503 83 188 4.3 7.0 0.00 0.84 0.84 51 1017.8
20260901122003 83 204 5.2 7.0 0.00 0.84 0.84 52 1017.9
20260901121503 83 191 3.5 7.0 0.00 0.84 0.84 52 1017.9
20260901121003 83 178 0.9 7.0 0.04 0.84 0.84 52 1018.0
20260901120503 82 153 0.9 3.5 0.05 0.84 0.84 51 1018.1
20260901120003 82 171 2.6 5.2 0.05 0.84 0.84 51 1018.0
20260901115503 82 178 4.3 5.2 0.05 0.84 0.84 51 1018.0
20260901115003 82 152 3.5 5.2 0.05 0.84 0.84 52 1018.0
20260901114526 82 94 1.7 5.2 0.05 0.84 0.84 52 1018.1
20260901114005 81 208 1.7 5.2 0.28 0.84 0.84 56 1018.1
20260901113505 82 224 1.7 5.2 0.33 0.84 0.84 52 1018.0
20260901113005 82 205 2.6 5.2 0.69 0.84 0.84 52 1018.1
20260901112505 82 201 2.6 5.2 0.83 0.84 0.84 51 1018.1
20260901112005 82 222 1.7 5.2 0.83 0.84 0.84 51 1018.4
20260901111505 83 268 0.9 3.5 0.83 0.84 0.84 50 1018.4
20260901111005 84 336 0.0 1.7 0.79 0.80 0.80 48 1018.1
20260901110505 86 309 0.9 3.5 0.78 0.79 0.79 46 1018.3
20260901110005 86 312 0.9 6.1 0.78 0.79 0.79 46 1018.5
20260901105505 88 315 0.9 6.1 0.78 0.79 0.79 47 1018.3
20260901105005 91 262 0.0 0.9 0.78 0.79 0.79 45 1018.5
20260901104505 90 208 0.0 0.9 0.78 0.79 0.79 51 1018.3
20260901104026 90 135 0.0 0.9 0.54 0.56 0.57 53 1018.3
20260901103505 87 113 0.9 3.5 0.50 0.51 0.51 56 1018.5
20260901103005 84 72 0.9 3.5 0.14 0.15 0.15 57 1018.5
20260901102505 82 80 0.9 2.6 0.00 0.01 0.01 60 1018.5
20260901102005 81 76 1.7 4.3 0.00 0.01 0.01 63 1018.5
20260901101505 79 55 1.7 4.3 0.00 0.01 0.01 63 1018.5
20260901101005 78 304 0.0 1.7 0.00 0.01 0.01 62 1018.5
20260901100526 79 315 0.0 0.9 0.00 0.01 0.01 62 1018.6
20260901100005 79 315 0.0 0.9 0.00 0.01 0.01 62 1018.5
20260901095505 79 0 0.0 0.0 0.00 0.01 0.01 62 1018.5
20260901095005 79 0 0.0 0.0 0.00 0.01 0.01 62 1018.6
20260901094505 78 0 0.0 0.0 0.00 0.01 0.01 62 1018.7
20260901094005 78 288 0.0 3.5 0.00 0.01 0.01 62 1018.6
20260901093505 78 262 0.9 3.5 0.00 0.01 0.01 62 1018.8
20260901093005 78 289 1.7 6.1 0.01 0.01 0.01 62 1018.6
20260901092526 78 304 2.6 6.1 0.01 0.01 0.01 62 1018.6
20260901092005 77 313 2.6 4.3 0.01 0.01 0.01 62 1018.6
20260901091505 77 301 2.6 4.3 0.01 0.01 0.01 61 1018.7
20260901091005 77 254 3.5 4.3 0.01 0.01 0.01 60 1018.5
20260901090505 77 246 2.6 4.3 0.01 0.01 0.01 58 1018.6
20260901090005 77 254 0.0 0.9 0.01 0.01 0.01 57 1018.5
20260901085505 76 206 0.9 2.6 0.01 0.01 0.01 57 1018.6
20260901085005 76 191 0.9 2.6 0.01 0.01 0.01 56 1018.3
20260901084505 75 67 0.0 0.9 0.01 0.01 0.01 56 1018.4
20260901084005 75 16 0.9 3.5 0.01 0.01 0.01 56 1018.5
20260901083526 75 21 1.7 5.2 0.01 0.01 0.01 55 1018.3
20260901083005 75 39 4.3 7.0 0.00 0.00 0.00 55 1018.5
20260901082526 76 54 3.5 7.0 0.00 0.00 0.00 53 1018.3
20260901082005 76 57 0.9 4.3 0.00 0.00 0.00 53 1018.1
20260901081505 76 0 0.0 0.0 0.00 0.00 0.00 53 1018.1
20260901081005 76 0 0.0 0.0 0.00 0.00 0.00 53 1018.3
20260901080505 74 0 0.0 0.0 0.00 0.00 0.00 52 1018.3
20260901080026 74 0 0.0 0.0 0.00 0.00 0.00 52 1017.9
20260901075505 73 22 0.0 2.6 0.00 0.00 0.00 53 1018.1
20260901075005 73 22 0.0 2.6 0.00 0.00 0.00 53 1018.1
20260901074505 73 22 0.0 0.9 0.00 0.00 0.00 54 1017.7
20260901074005 73 22 0.0 0.9 0.00 0.00 0.00 54 1017.9
20260901073505 72 22 0.9 2.6 0.00 0.00 0.00 53 1017.7
20260901073005 72 22 0.9 3.5 0.00 0.00 0.00 53 1017.8
20260901072505 72 29 0.9 3.5 0.00 0.00 0.00 52 1017.7
20260901072005 73 28 1.7 3.5 0.00 0.00 0.00 52 1017.7
20260901071505 73 60 2.6 4.3 0.00 0.00 0.00 51 1017.7
20260901071005 73 72 3.5 4.3 0.00 0.00 0.00 50 1017.8
20260901070505 74 52 4.3 5.2 0.00 0.00 0.00 49 1017.7
20260901070005 74 28 1.7 5.2 0.00 0.00 0.00 49 1017.7
20260901065505 74 65 1.7 6.1 0.00 0.00 0.00 50 1017.7
20260901065005 74 71 3.5 6.1 0.00 0.00 0.00 49 1017.7
20260901064505 74 71 3.5 4.3 0.00 0.00 0.00 47 1017.7
20260901064005 74 56 1.7 4.3 0.00 0.00 0.00 45 1017.4
20260901063526 74 22 0.9 3.5 0.00 0.00 0.00 44 1017.4
20260901063005 74 39 1.7 7.0 0.00 0.00 0.00 43 1017.6
20260901062526 73 47 3.5 7.0 0.00 0.00 0.00 42 1017.5
20260901062026 73 49 4.3 7.0 0.00 0.00 0.00 42 1017.3
20260901061505 73 39 4.3 6.1 0.00 0.00 0.00 42 1017.2
20260901061005 73 14 4.3 6.1 0.00 0.00 0.00 42 1017.0
20260901060504 73 5 4.3 7.0 0.00 0.00 0.00 41 1016.9
20260901060005 73 16 5.2 7.0 0.00 0.00 0.00 41 1017.0
20260901055505 73 21 5.2 7.0 0.00 0.00 0.00 41 1016.8
20260901055005 72 34 4.3 7.0 0.00 0.00 0.00 41 1016.8
20260901054505 72 55 5.2 7.0 0.00 0.00 0.00 44 1016.7
20260901054005 72 53 6.1 7.8 0.00 0.00 0.00 44 1016.8
20260901053505 72 35 6.1 7.8 0.00 0.00 0.00 44 1016.6
20260901053005 72 30 4.3 7.0 0.00 0.00 0.00 44 1016.5
20260901052505 72 52 4.3 7.0 0.00 0.00 0.00 44 1016.5
20260901052005 72 42 6.1 7.0 0.00 0.00 0.00 44 1016.6
20260901051505 71 26 5.2 7.0 0.00 0.00 0.00 44 1016.6
20260901051026 71 35 5.2 7.0 0.00 0.00 0.00 45 1016.5
20260901050526 71 49 6.1 7.0 0.00 0.00 0.00 45 1016.4
20260901050005 71 42 5.2 7.0 0.00 0.00 0.00 45 1016.3
20260901045526 71 28 5.2 7.0 0.00 0.00 0.00 45 1016.2
20260901045005 71 24 6.1 9.6 0.00 0.00 0.00 45 1016.3
20260901044506 71 25 6.1 9.6 0.00 0.00 0.00 45 1016.2
20260901044005 70 47 5.2 7.0 0.00 0.00 0.00 45 1016.1
20260901043526 70 60 4.3 5.2 0.00 0.00 0.00 45 1015.9
20260901043026 70 63 3.5 5.2 0.00 0.00 0.00 45 1015.9
20260901042505 70 52 2.6 4.3 0.00 0.00 0.00 45 1016.0
20260901042004 71 23 4.3 7.0 0.00 0.00 0.00 45 1015.9
20260901041526 71 19 5.2 7.0 0.00 0.00 0.00 45 1015.8
20260901041005 71 51 5.2 5.2 0.00 0.00 0.00 45 1015.7
20260901040505 71 61 5.2 8.7 0.00 0.00 0.00 44 1015.7
20260901040004 71 47 6.1 9.6 0.00 0.00 0.00 44 1015.6
20260901035505 71 45 7.8 12.2 0.00 0.00 0.00 44 1015.3
20260901035005 71 45 8.7 12.2 0.00 0.00 0.00 45 1015.2
20260901034505 71 37 7.8 9.6 0.00 0.00 0.00 45 1015.1
20260901034005 71 35 7.8 9.6 0.00 0.00 0.00 45 1015.1
20260901033504 71 33 7.0 9.6 0.00 0.00 0.00 45 1015.1
20260901033005 71 24 7.0 11.3 0.00 0.00 0.00 45 1015.0
20260901032526 72 30 7.0 11.3 0.00 0.00 0.00 45 1014.9
20260901032004 72 24 8.7 12.2 0.00 0.00 0.00 45 1014.9
20260901031505 72 10 11.3 13.0 0.00 0.00 0.00 45 1014.9
20260901031004 72 12 9.6 13.0 0.00 0.00 0.00 45 1015.0
20260901030504 72 17 7.8 11.3 0.00 0.00 0.00 45 1015.0
20260901030005 72 20 7.8 13.0 0.00 0.00 0.00 45 1015.0
20260901025505 72 23 7.8 13.0 0.00 0.00 0.00 45 1014.8
20260901025004 72 20 8.7 13.0 0.00 0.00 0.00 45 1015.0
20260901024504 72 15 8.7 9.6 0.00 0.00 0.00 42 1015.0
20260901024026 72 28 7.0 9.6 0.00 0.00 0.00 42 1015.0
20260901023505 73 42 7.0 9.6 0.00 0.00 0.00 42 1015.0
20260901023005 73 35 7.0 9.6 0.00 0.00 0.00 42 1015.1
20260901022505 72 29 6.1 7.8 0.00 0.00 0.00 43 1015.1
20260901022004 73 20 5.2 7.0 0.00 0.00 0.00 42 1015.0
20260901021505 73 13 6.1 8.7 0.00 0.00 0.00 42 1015.1
20260901021004 73 18 7.0 8.7 0.00 0.00 0.00 42 1014.9
20260901020526 73 22 7.0 8.7 0.00 0.00 0.00 42 1015.1
20260901020026 73 16 6.1 8.7 0.00 0.00 0.00 42 1014.9
20260901015505 74 9 5.2 7.0 0.00 0.00 0.00 42 1015.0
20260901015005 74 17 5.2 8.7 0.00 0.00 0.00 42 1015.0
20260901014505 74 17 4.3 8.7 0.00 0.00 0.00 42 1015.0
20260901014004 74 22 4.3 7.0 0.00 0.00 0.00 43 1015.0
20260901013505 74 19 5.2 7.0 0.00 0.00 0.00 43 1014.9
20260901013005 74 2 4.3 6.1 0.00 0.00 0.00 43 1014.8
20260901012526 74 5 4.3 6.1 0.00 0.00 0.00 44 1015.0
20260901012005 73 18 5.2 7.0 0.00 0.00 0.00 45 1014.9
20260901011504 73 15 5.2 7.8 0.00 0.00 0.00 45 1015.0
20260901011005 73 11 5.2 7.8 0.00 0.00 0.00 46 1015.0
20260901010505 73 11 5.2 7.0 0.00 0.00 0.00 47 1014.9
20260901010005 73 355 4.3 7.0 0.00 0.00 0.00 49 1014.9
20260901005526 72 355 3.5 7.0 0.00 0.00 0.00 50 1014.8
20260901005005 72 5 2.6 6.1 0.00 0.00 0.00 51 1014.9
20260901004526 72 10 2.6 7.0 0.00 0.00 0.00 51 1014.8
20260901004004 72 6 4.3 7.0 0.00 0.00 0.00 52 1014.8
20260901003505 72 4 3.5 7.0 0.00 0.00 0.00 52 1014.8
20260901003005 73 17 2.6 3.5 0.00 0.00 0.00 53 1014.8
20260901002526 73 11 3.5 6.1 0.00 0.00 0.00 53 1015.0
20260901002005 73 15 4.3 6.1 0.00 0.00 0.00 54 1014.9
20260901001526 73 28 3.5 6.1 0.00 0.00 0.00 55 1014.9
20260901001004 73 24 3.5 3.5 0.00 0.00 0.00 56 1014.9
20260901000526 73 21 4.3 6.1 0.00 0.00 0.00 58 1014.9
20260901000005 73 20 3.5 6.1 0.00 0.00 0.00 58 1014.9